Time,TemperatureF,DewpointF,PressureIn,WindDirection,WindDirectionDegrees,WindSpeedMPH,WindSpeedGustMPH,Humidity,HourlyPrecipIn,Conditions,Clouds,dailyrainin,SolarRadiationWatts/m^2,SoftwareType,DateUTC
2013-02-28 00:04:00,-1.5,-7.2,30.16,ESE,113,2.0,-999.0,76,0.00,,,0.00,0,WeatherHawk,2013-02-28 07:04:00,
2013-02-28 00:09:00,-1.8,-7.3,30.16,NNW,341,3.0,-999.0,77,0.00,,,0.00,0,WeatherHawk,2013-02-28 07:09:00,
2013-02-28 00:14:00,-2.0,-7.4,30.16,East,84,2.0,-999.0,77,0.00,,,0.00,0,WeatherHawk,2013-02-28 07:14:00,
2013-02-28 00:19:00,-2.0,-7.4,30.16,NNE,29,1.0,-999.0,77,0.00,,,0.00,0,WeatherHawk,2013-02-28 07:19:00,
2013-02-28 00:24:00,-2.4,-8.0,30.16,ESE,113,2.0,-999.0,76,0.00,,,0.00,0,WeatherHawk,2013-02-28 07:24:00,
2013-02-28 00:29:00,-2.9,-8.8,30.17,ESE,115,2.0,-999.0,75,0.00,,,0.00,0,WeatherHawk,2013-02-28 07:29:00,
2013-02-28 00:34:00,-2.7,-8.1,30.17,NNE,29,2.0,-999.0,77,0.00,,,0.00,0,WeatherHawk,2013-02-28 07:34:00,
2013-02-28 00:39:00,-2.4,-8.0,30.17,SE,145,2.0,-999.0,76,0.00,,,0.00,1,WeatherHawk,2013-02-28 07:39:00,
2013-02-28 00:44:00,-3.1,-8.5,30.17,ESE,114,3.0,-999.0,77,0.00,,,0.00,0,WeatherHawk,2013-02-28 07:44:00,
2013-02-28 00:49:00,-2.6,-7.7,30.18,SE,133,2.0,-999.0,78,0.00,,,0.00,0,WeatherHawk,2013-02-28 07:49:00,
2013-02-28 00:54:00,-2.7,-7.9,30.18,East,99,3.0,-999.0,78,0.00,,,0.00,1,WeatherHawk,2013-02-28 07:54:00,
2013-02-28 00:59:00,-2.2,-7.1,30.18,ESE,113,2.0,-999.0,79,0.00,,,0.00,0,WeatherHawk,2013-02-28 07:59:00,
2013-02-28 01:04:00,-1.7,-6.6,30.18,NE,34,2.0,-999.0,79,0.00,,,0.00,0,WeatherHawk,2013-02-28 08:04:00,
2013-02-28 01:09:00,-1.8,-7.5,30.18,North,3,2.0,-999.0,76,0.00,,,0.00,0,WeatherHawk,2013-02-28 08:09:00,
2013-02-28 01:14:00,-2.2,-7.6,30.18,North,351,3.0,-999.0,77,0.00,,,0.00,1,WeatherHawk,2013-02-28 08:14:00,
2013-02-28 01:19:00,-2.0,-7.4,30.18,East,96,2.0,-999.0,77,0.00,,,0.00,0,WeatherHawk,2013-02-28 08:19:00,
2013-02-28 01:24:00,-3.3,-9.7,30.19,SE,125,2.0,-999.0,73,0.00,,,0.00,0,WeatherHawk,2013-02-28 08:24:00,
2013-02-28 01:29:00,-4.2,-10.1,30.19,East,90,2.0,-999.0,75,0.00,,,0.00,0,WeatherHawk,2013-02-28 08:29:00,
2013-02-28 01:34:00,-2.9,-7.0,30.19,NNE,19,3.0,-999.0,82,0.00,,,0.00,1,WeatherHawk,2013-02-28 08:34:00,
2013-02-28 01:39:00,-1.7,-6.8,30.19,East,93,2.0,-999.0,78,0.00,,,0.00,0,WeatherHawk,2013-02-28 08:39:00,
2013-02-28 01:44:00,-2.2,-7.6,30.19,NE,53,2.0,-999.0,77,0.00,,,0.00,0,WeatherHawk,2013-02-28 08:44:00,
2013-02-28 01:49:00,-2.0,-7.4,30.19,North,356,4.0,-999.0,77,0.00,,,0.00,0,WeatherHawk,2013-02-28 08:49:00,
2013-02-28 01:54:00,-1.7,-7.9,30.19,ESE,106,2.0,-999.0,74,0.00,,,0.00,1,WeatherHawk,2013-02-28 08:54:00,
2013-02-28 01:59:00,-3.5,-10.5,30.19,SSE,160,2.0,-999.0,71,0.00,,,0.00,0,WeatherHawk,2013-02-28 08:59:00,
2013-02-28 02:04:00,-4.0,-10.4,30.19,ESE,109,2.0,-999.0,73,0.00,,,0.00,0,WeatherHawk,2013-02-28 09:04:00,
2013-02-28 02:09:00,-3.8,-10.0,30.19,SSE,168,1.0,-999.0,74,0.00,,,0.00,0,WeatherHawk,2013-02-28 09:09:00,
2013-02-28 02:14:00,-3.5,-9.4,30.19,East,91,2.0,-999.0,75,0.00,,,0.00,0,WeatherHawk,2013-02-28 09:14:00,
2013-02-28 02:19:00,-2.7,-8.1,30.19,SE,125,3.0,-999.0,77,0.00,,,0.00,0,WeatherHawk,2013-02-28 09:19:00,
2013-02-28 02:24:00,-2.2,-7.9,30.19,NNW,338,2.0,-999.0,76,0.00,,,0.00,0,WeatherHawk,2013-02-28 09:24:00,
2013-02-28 02:29:00,-2.4,-8.6,30.20,SE,146,2.0,-999.0,74,0.00,,,0.00,0,WeatherHawk,2013-02-28 09:29:00,
2013-02-28 02:34:00,-2.0,-8.2,30.20,ESE,114,3.0,-999.0,74,0.00,,,0.00,0,WeatherHawk,2013-02-28 09:34:00,
2013-02-28 02:39:00,-1.7,-7.6,30.20,SE,138,4.0,-999.0,75,0.00,,,0.00,0,WeatherHawk,2013-02-28 09:39:00,
2013-02-28 02:44:00,-1.3,-7.3,30.20,SSE,154,2.0,-999.0,75,0.00,,,0.00,0,WeatherHawk,2013-02-28 09:44:00,
2013-02-28 02:49:00,-1.3,-7.3,30.19,ESE,112,2.0,-999.0,75,0.00,,,0.00,0,WeatherHawk,2013-02-28 09:49:00,
2013-02-28 02:54:00,-0.9,-6.4,30.19,NE,38,2.0,-999.0,77,0.00,,,0.00,0,WeatherHawk,2013-02-28 09:54:00,
2013-02-28 02:59:00,-0.4,-6.1,30.19,ESE,110,3.0,-999.0,76,0.00,,,0.00,0,WeatherHawk,2013-02-28 09:59:00,
2013-02-28 03:04:00,-0.2,-6.2,30.19,ESE,108,2.0,-999.0,75,0.00,,,0.00,0,WeatherHawk,2013-02-28 10:04:00,
2013-02-28 03:09:00,-0.4,-7.0,30.19,East,85,2.0,-999.0,73,0.00,,,0.00,0,WeatherHawk,2013-02-28 10:09:00,
2013-02-28 03:14:00,-0.4,-6.4,30.19,ENE,61,1.0,-999.0,75,0.00,,,0.00,0,WeatherHawk,2013-02-28 10:14:00,
2013-02-28 03:19:00,-0.4,-7.0,30.19,NNW,330,3.0,-999.0,73,0.00,,,0.00,0,WeatherHawk,2013-02-28 10:19:00,
2013-02-28 03:24:00,-0.6,-7.4,30.19,North,9,3.0,-999.0,72,0.00,,,0.00,0,WeatherHawk,2013-02-28 10:24:00,
2013-02-28 03:29:00,-1.3,-8.4,30.19,SE,140,2.0,-999.0,71,0.00,,,0.00,0,WeatherHawk,2013-02-28 10:29:00,
2013-02-28 03:34:00,-1.8,-8.3,30.19,NE,38,2.0,-999.0,73,0.00,,,0.00,0,WeatherHawk,2013-02-28 10:34:00,
2013-02-28 03:39:00,-1.5,-7.2,30.18,NW,314,2.0,-999.0,76,0.00,,,0.00,0,WeatherHawk,2013-02-28 10:39:00,
2013-02-28 03:44:00,-1.7,-7.9,30.18,ESE,102,2.0,-999.0,74,0.00,,,0.00,0,WeatherHawk,2013-02-28 10:44:00,
2013-02-28 03:49:00,-1.7,-7.1,30.18,ESE,104,2.0,-999.0,77,0.00,,,0.00,1,WeatherHawk,2013-02-28 10:49:00,
2013-02-28 03:54:00,-2.2,-8.1,30.18,East,87,2.0,-999.0,75,0.00,,,0.00,0,WeatherHawk,2013-02-28 10:54:00,
2013-02-28 03:59:00,-2.9,-8.6,30.18,SE,135,2.0,-999.0,76,0.00,,,0.00,0,WeatherHawk,2013-02-28 10:59:00,
2013-02-28 04:04:00,-3.1,-8.7,30.18,East,84,2.0,-999.0,76,0.00,,,0.00,0,WeatherHawk,2013-02-28 11:04:00,
2013-02-28 04:09:00,-2.9,-8.3,30.18,East,96,2.0,-999.0,77,0.00,,,0.00,0,WeatherHawk,2013-02-28 11:09:00,
2013-02-28 04:14:00,-2.6,-7.7,30.18,East,91,2.0,-999.0,78,0.00,,,0.00,0,WeatherHawk,2013-02-28 11:14:00,
2013-02-28 04:19:00,-2.6,-8.0,30.18,ENE,75,2.0,-999.0,77,0.00,,,0.00,0,WeatherHawk,2013-02-28 11:19:00,
2013-02-28 04:24:00,-2.7,-7.9,30.18,East,79,2.0,-999.0,78,0.00,,,0.00,0,WeatherHawk,2013-02-28 11:24:00,
2013-02-28 04:29:00,-1.8,-6.7,30.18,ESE,109,3.0,-999.0,79,0.00,,,0.00,0,WeatherHawk,2013-02-28 11:29:00,
2013-02-28 04:34:00,-0.9,-6.1,30.18,NE,56,2.0,-999.0,78,0.00,,,0.00,0,WeatherHawk,2013-02-28 11:34:00,
2013-02-28 04:39:00,-1.5,-6.9,30.18,NE,41,3.0,-999.0,77,0.00,,,0.00,0,WeatherHawk,2013-02-28 11:39:00,
2013-02-28 04:44:00,-1.1,-6.3,30.18,NE,46,2.0,-999.0,78,0.00,,,0.00,1,WeatherHawk,2013-02-28 11:44:00,
2013-02-28 04:49:00,-1.1,-6.6,30.18,East,86,3.0,-999.0,77,0.00,,,0.00,0,WeatherHawk,2013-02-28 11:49:00,
2013-02-28 04:54:00,-0.8,-5.7,30.19,NNE,21,2.0,-999.0,79,0.00,,,0.00,0,WeatherHawk,2013-02-28 11:54:00,
2013-02-28 04:59:00,-0.9,-6.6,30.19,SE,126,1.0,-999.0,76,0.00,,,0.00,0,WeatherHawk,2013-02-28 11:59:00,
2013-02-28 05:04:00,-2.0,-8.8,30.19,SSE,155,2.0,-999.0,72,0.00,,,0.00,0,WeatherHawk,2013-02-28 12:04:00,
2013-02-28 05:09:00,-3.5,-9.4,30.19,SE,131,2.0,-999.0,75,0.00,,,0.00,0,WeatherHawk,2013-02-28 12:09:00,
2013-02-28 05:14:00,-3.5,-8.6,30.18,SE,124,3.0,-999.0,78,0.00,,,0.00,0,WeatherHawk,2013-02-28 12:14:00,
2013-02-28 05:19:00,-2.6,-7.7,30.19,ESE,111,2.0,-999.0,78,0.00,,,0.00,0,WeatherHawk,2013-02-28 12:19:00,
2013-02-28 05:24:00,-2.2,-7.1,30.19,East,97,2.0,-999.0,79,0.00,,,0.00,0,WeatherHawk,2013-02-28 12:24:00,
2013-02-28 05:29:00,-2.4,-8.3,30.19,SE,144,2.0,-999.0,75,0.00,,,0.00,1,WeatherHawk,2013-02-28 12:29:00,
2013-02-28 05:34:00,-3.5,-9.6,30.19,East,92,2.0,-999.0,74,0.00,,,0.00,0,WeatherHawk,2013-02-28 12:34:00,
2013-02-28 05:39:00,-4.0,-9.6,30.19,SE,124,2.0,-999.0,76,0.00,,,0.00,1,WeatherHawk,2013-02-28 12:39:00,
2013-02-28 05:44:00,-3.6,-9.5,30.19,NW,314,4.0,-999.0,75,0.00,,,0.00,0,WeatherHawk,2013-02-28 12:44:00,
2013-02-28 05:49:00,-4.0,-9.1,30.19,ENE,62,3.0,-999.0,78,0.00,,,0.00,0,WeatherHawk,2013-02-28 12:49:00,
2013-02-28 05:54:00,-3.8,-9.4,30.19,ENE,75,1.0,-999.0,76,0.00,,,0.00,0,WeatherHawk,2013-02-28 12:54:00,
2013-02-28 05:59:00,-3.5,-8.1,30.19,NNE,30,2.0,-999.0,80,0.00,,,0.00,0,WeatherHawk,2013-02-28 12:59:00,
2013-02-28 06:04:00,-3.5,-8.8,30.19,ENE,60,4.0,-999.0,77,0.00,,,0.00,1,WeatherHawk,2013-02-28 13:04:00,
2013-02-28 06:09:00,-3.6,-8.5,30.19,SE,144,2.0,-999.0,79,0.00,,,0.00,0,WeatherHawk,2013-02-28 13:09:00,
2013-02-28 06:14:00,-3.5,-8.6,30.19,ESE,102,2.0,-999.0,78,0.00,,,0.00,0,WeatherHawk,2013-02-28 13:14:00,
2013-02-28 06:24:00,-4.0,-9.9,30.19,East,92,2.0,-999.0,75,0.00,,,0.00,1,WeatherHawk,2013-02-28 13:24:00,
2013-02-28 06:29:00,-4.4,-9.4,30.19,WSW,256,3.0,-999.0,78,0.00,,,0.00,0,WeatherHawk,2013-02-28 13:29:00,
2013-02-28 06:34:00,-4.0,-9.1,30.19,SE,142,4.0,-999.0,78,0.00,,,0.00,2,WeatherHawk,2013-02-28 13:34:00,
2013-02-28 06:39:00,-3.6,-8.2,30.19,ESE,115,2.0,-999.0,80,0.00,,,0.00,4,WeatherHawk,2013-02-28 13:39:00,
2013-02-28 06:44:00,-2.9,-7.8,30.19,NE,38,3.0,-999.0,79,0.00,,,0.00,3,WeatherHawk,2013-02-28 13:44:00,
2013-02-28 06:49:00,-2.9,-7.8,30.19,ENE,66,2.0,-999.0,79,0.00,,,0.00,7,WeatherHawk,2013-02-28 13:49:00,
2013-02-28 06:54:00,-2.7,-8.1,30.19,ENE,60,4.0,-999.0,77,0.00,,,0.00,5,WeatherHawk,2013-02-28 13:54:00,
2013-02-28 06:59:00,-2.9,-9.1,30.19,SE,145,2.0,-999.0,74,0.00,,,0.00,8,WeatherHawk,2013-02-28 13:59:00,
2013-02-28 07:04:00,-4.4,-9.7,30.19,ENE,72,2.0,-999.0,77,0.00,,,0.00,9,WeatherHawk,2013-02-28 14:04:00,
2013-02-28 07:09:00,-3.6,-8.7,30.19,East,80,3.0,-999.0,78,0.00,,,0.00,10,WeatherHawk,2013-02-28 14:09:00,
2013-02-28 07:14:00,-3.6,-9.3,30.19,WNW,287,1.0,-999.0,76,0.00,,,0.00,11,WeatherHawk,2013-02-28 14:14:00,
2013-02-28 07:19:00,-3.5,-9.1,30.19,NNW,335,4.0,-999.0,76,0.00,,,0.00,12,WeatherHawk,2013-02-28 14:19:00,
2013-02-28 07:24:00,-4.0,-10.7,30.19,NNE,20,3.0,-999.0,72,0.00,,,0.00,12,WeatherHawk,2013-02-28 14:24:00,
2013-02-28 07:29:00,-4.9,-11.3,30.19,ESE,116,2.0,-999.0,73,0.00,,,0.00,13,WeatherHawk,2013-02-28 14:29:00,
2013-02-28 07:34:00,-4.2,-9.0,30.19,East,83,3.0,-999.0,79,0.00,,,0.00,13,WeatherHawk,2013-02-28 14:34:00,
2013-02-28 07:39:00,-2.9,-7.5,30.19,ENE,70,3.0,-999.0,80,0.00,,,0.00,15,WeatherHawk,2013-02-28 14:39:00,
2013-02-28 07:44:00,-2.7,-8.1,30.19,East,99,2.0,-999.0,77,0.00,,,0.00,16,WeatherHawk,2013-02-28 14:44:00,
2013-02-28 07:49:00,-2.4,-7.3,30.19,SSW,196,2.0,-999.0,79,0.00,,,0.00,17,WeatherHawk,2013-02-28 14:49:00,
2013-02-28 07:54:00,-2.9,-8.8,30.19,East,99,1.0,-999.0,75,0.00,,,0.00,18,WeatherHawk,2013-02-28 14:54:00,
2013-02-28 07:59:00,-2.9,-8.3,30.19,ESE,121,3.0,-999.0,77,0.00,,,0.00,18,WeatherHawk,2013-02-28 14:59:00,
2013-02-28 08:04:00,-2.0,-6.9,30.19,ESE,112,4.0,-999.0,79,0.00,,,0.00,80,WeatherHawk,2013-02-28 15:04:00,
2013-02-28 08:09:00,-0.9,-5.9,30.19,North,9,2.0,-999.0,79,0.00,,,0.00,27,WeatherHawk,2013-02-28 15:09:00,
2013-02-28 08:14:00,0.1,-4.8,30.19,NNE,31,2.0,-999.0,79,0.00,,,0.00,172,WeatherHawk,2013-02-28 15:14:00,
2013-02-28 08:19:00,1.4,-4.7,30.19,NW,304,3.0,-999.0,75,0.00,,,0.00,183,WeatherHawk,2013-02-28 15:19:00,
2013-02-28 08:24:00,2.1,-4.5,30.19,West,271,1.0,-999.0,73,0.00,,,0.00,195,WeatherHawk,2013-02-28 15:24:00,
2013-02-28 08:29:00,3.6,-1.7,30.19,SW,217,2.0,-999.0,78,0.00,,,0.00,207,WeatherHawk,2013-02-28 15:29:00,
2013-02-28 08:34:00,5.2,-2.4,30.20,WSW,258,1.0,-999.0,70,0.00,,,0.00,220,WeatherHawk,2013-02-28 15:34:00,
2013-02-28 08:39:00,5.5,-3.3,30.20,East,82,2.0,-999.0,66,0.00,,,0.00,233,WeatherHawk,2013-02-28 15:39:00,
2013-02-28 08:44:00,6.4,-4.1,30.20,West,262,3.0,-999.0,61,0.00,,,0.00,244,WeatherHawk,2013-02-28 15:44:00,
2013-02-28 08:49:00,6.4,-4.4,30.20,NW,321,2.0,-999.0,60,0.00,,,0.00,260,WeatherHawk,2013-02-28 15:49:00,
2013-02-28 08:54:00,6.8,-3.1,30.20,NNW,344,2.0,-999.0,63,0.00,,,0.00,272,WeatherHawk,2013-02-28 15:54:00,
2013-02-28 08:59:00,7.3,-3.6,30.20,NW,316,2.0,-999.0,60,0.00,,,0.00,288,WeatherHawk,2013-02-28 15:59:00,
2013-02-28 09:04:00,8.1,-3.3,30.19,NNE,16,3.0,-999.0,59,0.00,,,0.00,303,WeatherHawk,2013-02-28 16:04:00,
2013-02-28 09:09:00,8.8,-2.9,30.20,NW,312,2.0,-999.0,58,0.00,,,0.00,323,WeatherHawk,2013-02-28 16:09:00,
2013-02-28 09:14:00,8.8,-3.3,30.20,NW,309,2.0,-999.0,57,0.00,,,0.00,338,WeatherHawk,2013-02-28 16:14:00,
2013-02-28 09:24:00,10.9,-0.2,30.20,NNE,12,2.0,-999.0,60,0.00,,,0.00,369,WeatherHawk,2013-02-28 16:24:00,
2013-02-28 09:29:00,12.2,-2.0,30.20,East,90,2.0,-999.0,52,0.00,,,0.00,382,WeatherHawk,2013-02-28 16:29:00,
2013-02-28 09:34:00,12.7,-2.3,30.20,NNW,342,2.0,-999.0,50,0.00,,,0.00,393,WeatherHawk,2013-02-28 16:34:00,
2013-02-28 09:39:00,13.6,-2.4,30.20,NNW,340,2.0,-999.0,48,0.00,,,0.00,403,WeatherHawk,2013-02-28 16:39:00,
2013-02-28 09:44:00,14.0,-1.2,30.20,NW,304,2.0,-999.0,50,0.00,,,0.00,412,WeatherHawk,2013-02-28 16:44:00,
2013-02-28 09:49:00,15.1,-2.4,30.20,South,188,1.0,-999.0,45,0.00,,,0.00,424,WeatherHawk,2013-02-28 16:49:00,
2013-02-28 09:59:00,14.7,-3.2,30.19,NNW,347,3.0,-999.0,44,0.00,,,0.00,442,WeatherHawk,2013-02-28 16:59:00,
2013-02-28 10:04:00,15.4,-2.5,30.19,WNW,298,4.0,-999.0,44,0.00,,,0.00,450,WeatherHawk,2013-02-28 17:04:00,
2013-02-28 10:14:00,16.0,-2.0,30.19,WNW,291,2.0,-999.0,44,0.00,,,0.00,468,WeatherHawk,2013-02-28 17:14:00,
2013-02-28 10:19:00,15.6,-3.3,30.19,SE,134,2.0,-999.0,42,0.00,,,0.00,470,WeatherHawk,2013-02-28 17:19:00,
2013-02-28 10:24:00,16.3,-2.2,30.20,West,271,5.0,-999.0,43,0.00,,,0.00,481,WeatherHawk,2013-02-28 17:24:00,
2013-02-28 10:29:00,17.4,-1.2,30.19,NW,318,5.0,-999.0,43,0.00,,,0.00,492,WeatherHawk,2013-02-28 17:29:00,
2013-02-28 10:39:00,16.5,-2.0,30.20,West,273,5.0,-999.0,43,0.00,,,0.00,505,WeatherHawk,2013-02-28 17:39:00,
2013-02-28 10:44:00,17.8,-1.4,30.20,WNW,299,3.0,-999.0,42,0.00,,,0.00,506,WeatherHawk,2013-02-28 17:44:00,
2013-02-28 10:49:00,19.2,-0.6,30.20,NW,317,6.0,-999.0,41,0.00,,,0.00,515,WeatherHawk,2013-02-28 17:49:00,
2013-02-28 10:54:00,18.1,-0.6,30.20,WSW,258,4.0,-999.0,43,0.00,,,0.00,527,WeatherHawk,2013-02-28 17:54:00,
2013-02-28 10:59:00,18.3,0.6,30.20,NW,311,3.0,-999.0,45,0.00,,,0.00,525,WeatherHawk,2013-02-28 17:59:00,
2013-02-28 11:04:00,19.2,0.9,30.20,NW,311,5.0,-999.0,44,0.00,,,0.00,532,WeatherHawk,2013-02-28 18:04:00,
2013-02-28 11:09:00,19.0,0.3,30.20,WNW,286,4.0,-999.0,43,0.00,,,0.00,537,WeatherHawk,2013-02-28 18:09:00,
2013-02-28 11:14:00,19.2,0.9,30.19,NW,323,1.0,-999.0,44,0.00,,,0.00,549,WeatherHawk,2013-02-28 18:14:00,
2013-02-28 11:19:00,19.8,0.4,30.19,WSW,238,4.0,-999.0,42,0.00,,,0.00,545,WeatherHawk,2013-02-28 18:19:00,
2013-02-28 11:24:00,20.1,0.2,30.19,NNW,331,9.0,-999.0,41,0.00,,,0.00,547,WeatherHawk,2013-02-28 18:24:00,
2013-02-28 11:34:00,19.8,-0.1,30.19,West,262,6.0,-999.0,41,0.00,,,0.00,554,WeatherHawk,2013-02-28 18:34:00,
2013-02-28 11:39:00,20.1,0.2,30.19,NNW,331,8.0,-999.0,41,0.00,,,0.00,553,WeatherHawk,2013-02-28 18:39:00,
2013-02-28 11:44:00,20.5,0.6,30.19,WNW,298,8.0,-999.0,41,0.00,,,0.00,559,WeatherHawk,2013-02-28 18:44:00,
2013-02-28 11:49:00,20.5,0.6,30.19,West,271,4.0,-999.0,41,0.00,,,0.00,564,WeatherHawk,2013-02-28 18:49:00,
2013-02-28 11:54:00,20.8,0.9,30.19,West,266,5.0,-999.0,41,0.00,,,0.00,566,WeatherHawk,2013-02-28 18:54:00,
2013-02-28 11:59:00,21.0,1.1,30.19,WNW,286,8.0,-999.0,41,0.00,,,0.00,595,WeatherHawk,2013-02-28 18:59:00,
2013-02-28 12:04:00,21.7,1.7,30.19,WSW,256,11.0,-999.0,41,0.00,,,0.00,595,WeatherHawk,2013-02-28 19:04:00,
2013-02-28 12:09:00,21.4,0.9,30.18,NW,309,3.0,-999.0,40,0.00,,,0.00,153,WeatherHawk,2013-02-28 19:09:00,
2013-02-28 12:14:00,21.6,1.5,30.18,WSW,254,3.0,-999.0,41,0.00,,,0.00,581,WeatherHawk,2013-02-28 19:14:00,
2013-02-28 12:19:00,22.8,2.2,30.18,WNW,292,11.0,-999.0,40,0.00,,,0.00,612,WeatherHawk,2013-02-28 19:19:00,
2013-02-28 12:24:00,22.3,1.1,30.18,NW,322,9.0,-999.0,39,0.00,,,0.00,494,WeatherHawk,2013-02-28 19:24:00,
2013-02-28 12:29:00,21.6,1.5,30.18,NW,306,3.0,-999.0,41,0.00,,,0.00,277,WeatherHawk,2013-02-28 19:29:00,
2013-02-28 12:34:00,21.6,1.5,30.18,WNW,287,6.0,-999.0,41,0.00,,,0.00,489,WeatherHawk,2013-02-28 19:34:00,
2013-02-28 12:39:00,21.9,2.9,30.18,WNW,298,4.0,-999.0,43,0.00,,,0.00,439,WeatherHawk,2013-02-28 19:39:00,
2013-02-28 12:44:00,22.3,2.2,30.18,NW,322,4.0,-999.0,41,0.00,,,0.00,310,WeatherHawk,2013-02-28 19:44:00,
2013-02-28 12:49:00,22.1,2.0,30.18,NW,310,5.0,-999.0,41,0.00,,,0.00,400,WeatherHawk,2013-02-28 19:49:00,
2013-02-28 12:54:00,22.5,2.4,30.17,West,264,5.0,-999.0,41,0.00,,,0.00,535,WeatherHawk,2013-02-28 19:54:00,
2013-02-28 13:04:00,23.0,2.3,30.17,WNW,293,9.0,-999.0,40,0.00,,,0.00,395,WeatherHawk,2013-02-28 20:04:00,
2013-02-28 13:09:00,22.6,2.0,30.17,North,349,4.0,-999.0,40,0.00,,,0.00,281,WeatherHawk,2013-02-28 20:09:00,
2013-02-28 13:14:00,22.6,1.5,30.16,WNW,286,4.0,-999.0,39,0.00,,,0.00,368,WeatherHawk,2013-02-28 20:14:00,
2013-02-28 13:19:00,22.5,1.3,30.16,NW,310,12.0,-999.0,39,0.00,,,0.00,333,WeatherHawk,2013-02-28 20:19:00,
2013-02-28 13:24:00,22.5,1.3,30.16,NW,316,8.0,-999.0,39,0.00,,,0.00,262,WeatherHawk,2013-02-28 20:24:00,
2013-02-28 13:29:00,22.5,1.3,30.16,NW,320,9.0,-999.0,39,0.00,,,0.00,305,WeatherHawk,2013-02-28 20:29:00,
2013-02-28 13:34:00,22.3,1.7,30.16,NW,313,8.0,-999.0,40,0.00,,,0.00,291,WeatherHawk,2013-02-28 20:34:00,
2013-02-28 13:39:00,22.6,2.0,30.16,WNW,295,5.0,-999.0,40,0.00,,,0.00,318,WeatherHawk,2013-02-28 20:39:00,
2013-02-28 13:44:00,21.9,2.4,30.16,NW,314,9.0,-999.0,42,0.00,,,0.00,301,WeatherHawk,2013-02-28 20:44:00,
2013-02-28 13:49:00,22.1,2.5,30.16,WNW,298,7.0,-999.0,42,0.00,,,0.00,252,WeatherHawk,2013-02-28 20:49:00,
2013-02-28 13:54:00,22.5,2.9,30.16,NNW,334,7.0,-999.0,42,0.00,,,0.00,295,WeatherHawk,2013-02-28 20:54:00,
2013-02-28 13:59:00,22.1,2.5,30.16,NW,323,6.0,-999.0,42,0.00,,,0.00,272,WeatherHawk,2013-02-28 20:59:00,
2013-02-28 14:05:00,21.7,3.2,30.16,NW,304,5.0,-999.0,44,0.00,,,0.00,257,WeatherHawk,2013-02-28 21:05:00,
2013-02-28 14:14:00,21.6,3.5,30.16,WNW,282,5.0,-999.0,45,0.00,,,0.00,195,WeatherHawk,2013-02-28 21:14:00,
2013-02-28 14:19:00,21.4,3.9,30.16,NW,307,4.0,-999.0,46,0.00,,,0.00,210,WeatherHawk,2013-02-28 21:19:00,
2013-02-28 14:24:00,21.4,3.9,30.16,SSE,164,2.0,-999.0,46,0.00,,,0.00,213,WeatherHawk,2013-02-28 21:24:00,
2013-02-28 14:29:00,20.8,3.8,30.16,WNW,303,6.0,-999.0,47,0.00,,,0.00,226,WeatherHawk,2013-02-28 21:29:00,
2013-02-28 14:34:00,21.2,4.2,30.16,NW,308,6.0,-999.0,47,0.00,,,0.00,229,WeatherHawk,2013-02-28 21:34:00,
2013-02-28 14:44:00,21.4,3.9,30.16,WNW,301,8.0,-999.0,46,0.00,,,0.00,234,WeatherHawk,2013-02-28 21:44:00,
2013-02-28 14:49:00,21.2,4.6,30.16,West,260,3.0,-999.0,48,0.00,,,0.00,198,WeatherHawk,2013-02-28 21:49:00,
2013-02-28 14:59:00,21.2,4.6,30.16,NNW,335,2.0,-999.0,48,0.00,,,0.00,173,WeatherHawk,2013-02-28 21:59:00,
2013-02-28 15:04:00,21.2,4.6,30.17,WNW,302,7.0,-999.0,48,0.00,,,0.00,147,WeatherHawk,2013-02-28 22:04:00,
2013-02-28 15:09:00,20.8,5.2,30.17,North,351,4.0,-999.0,50,0.00,,,0.00,153,WeatherHawk,2013-02-28 22:09:00,
2013-02-28 15:19:00,20.5,4.8,30.17,WNW,286,5.0,-999.0,50,0.00,,,0.00,96,WeatherHawk,2013-02-28 22:19:00,
2013-02-28 15:24:00,20.3,5.5,30.18,WNW,296,4.0,-999.0,52,0.00,,,0.00,111,WeatherHawk,2013-02-28 22:24:00,
2013-02-28 15:29:00,19.9,5.2,30.17,West,276,5.0,-999.0,52,0.00,,,0.00,102,WeatherHawk,2013-02-28 22:29:00,
2013-02-28 15:34:00,19.8,5.8,30.17,NW,309,5.0,-999.0,54,0.00,,,0.00,93,WeatherHawk,2013-02-28 22:34:00,
2013-02-28 15:39:00,19.6,6.1,30.17,WNW,299,7.0,-999.0,55,0.00,,,0.00,91,WeatherHawk,2013-02-28 22:39:00,
2013-02-28 15:44:00,19.0,6.0,30.18,NW,316,7.0,-999.0,56,0.00,,,0.00,105,WeatherHawk,2013-02-28 22:44:00,
2013-02-28 15:49:00,19.0,6.3,30.18,WNW,283,4.0,-999.0,57,0.00,,,0.00,90,WeatherHawk,2013-02-28 22:49:00,
2013-02-28 15:54:00,19.2,6.5,30.17,West,262,4.0,-999.0,57,0.00,,,0.00,114,WeatherHawk,2013-02-28 22:54:00,
2013-02-28 15:59:00,19.2,6.5,30.18,NW,304,6.0,-999.0,57,0.00,,,0.00,159,WeatherHawk,2013-02-28 22:59:00,
2013-02-28 16:04:00,19.2,6.9,30.17,West,278,2.0,-999.0,58,0.00,,,0.00,140,WeatherHawk,2013-02-28 23:04:00,
2013-02-28 16:09:00,19.4,7.4,30.18,NW,323,6.0,-999.0,59,0.00,,,0.00,69,WeatherHawk,2013-02-28 23:09:00,
2013-02-28 16:14:00,18.5,7.3,30.17,WNW,299,8.0,-999.0,61,0.00,,,0.00,62,WeatherHawk,2013-02-28 23:14:00,
2013-02-28 16:19:00,18.5,7.7,30.17,NW,323,2.0,-999.0,62,0.00,,,0.00,91,WeatherHawk,2013-02-28 23:19:00,
2013-02-28 16:24:00,18.7,7.5,30.17,NW,326,3.0,-999.0,61,0.00,,,0.00,87,WeatherHawk,2013-02-28 23:24:00,
2013-02-28 16:29:00,18.9,7.7,30.17,WNW,303,2.0,-999.0,61,0.00,,,0.00,74,WeatherHawk,2013-02-28 23:29:00,
2013-02-28 16:34:00,18.7,7.9,30.17,West,263,8.0,-999.0,62,0.00,,,0.00,76,WeatherHawk,2013-02-28 23:34:00,
2013-02-28 16:39:00,18.7,8.2,30.17,WNW,301,6.0,-999.0,63,0.00,,,0.00,55,WeatherHawk,2013-02-28 23:39:00,
2013-02-28 16:44:00,18.5,8.0,30.18,WSW,247,6.0,-999.0,63,0.00,,,0.00,50,WeatherHawk,2013-02-28 23:44:00,
2013-02-28 16:49:00,18.5,8.4,30.17,NW,319,2.0,-999.0,64,0.00,,,0.00,35,WeatherHawk,2013-02-28 23:49:00,
2013-02-28 16:54:00,18.3,8.2,30.18,WNW,302,9.0,-999.0,64,0.00,,,0.00,29,WeatherHawk,2013-02-28 23:54:00,
2013-02-28 16:59:00,18.3,8.2,30.17,WSW,258,6.0,-999.0,64,0.00,,,0.00,34,WeatherHawk,2013-02-28 23:59:00,
2013-02-28 17:04:00,18.3,8.6,30.18,NW,305,6.0,-999.0,65,0.00,,,0.00,21,WeatherHawk,2013-03-01 00:04:00,
2013-02-28 17:09:00,18.1,8.7,30.18,NW,317,5.0,-999.0,66,0.00,,,0.00,13,WeatherHawk,2013-03-01 00:09:00,
2013-02-28 17:14:00,18.0,8.5,30.18,NNW,332,6.0,-999.0,66,0.00,,,0.00,16,WeatherHawk,2013-03-01 00:14:00,
2013-02-28 17:19:00,18.0,8.9,30.18,WNW,297,4.0,-999.0,67,0.00,,,0.00,9,WeatherHawk,2013-03-01 00:19:00,
2013-02-28 17:24:00,18.0,9.2,30.18,WNW,300,5.0,-999.0,68,0.00,,,0.00,6,WeatherHawk,2013-03-01 00:24:00,
2013-02-28 17:29:00,17.8,9.7,30.18,NW,325,5.0,-999.0,70,0.00,,,0.00,6,WeatherHawk,2013-03-01 00:29:00,
2013-02-28 17:34:00,17.4,10.0,30.18,WNW,301,6.0,-999.0,72,0.00,,,0.00,5,WeatherHawk,2013-03-01 00:34:00,
2013-02-28 17:39:00,17.2,10.4,30.18,WNW,285,5.0,-999.0,74,0.00,,,0.00,5,WeatherHawk,2013-03-01 00:39:00,
2013-02-28 17:44:00,17.1,10.8,30.18,NNW,327,5.0,-999.0,76,0.00,,,0.00,1,WeatherHawk,2013-03-01 00:44:00,
2013-02-28 17:49:00,16.7,10.8,30.18,WNW,284,3.0,-999.0,77,0.00,,,0.00,1,WeatherHawk,2013-03-01 00:49:00,
2013-02-28 17:54:00,16.5,10.9,30.18,NNW,327,5.0,-999.0,78,0.00,,,0.00,0,WeatherHawk,2013-03-01 00:54:00,
2013-02-28 17:59:00,16.5,10.9,30.18,West,275,3.0,-999.0,78,0.00,,,0.00,0,WeatherHawk,2013-03-01 00:59:00,
2013-02-28 18:04:00,16.5,10.9,30.18,NW,319,2.0,-999.0,78,0.00,,,0.00,0,WeatherHawk,2013-03-01 01:04:00,
2013-02-28 18:09:00,16.5,10.9,30.19,NNW,329,2.0,-999.0,78,0.00,,,0.00,0,WeatherHawk,2013-03-01 01:09:00,
2013-02-28 18:14:00,16.5,10.9,30.19,NW,326,3.0,-999.0,78,0.00,,,0.00,0,WeatherHawk,2013-03-01 01:14:00,
2013-02-28 18:19:00,16.5,11.2,30.19,NW,317,2.0,-999.0,79,0.00,,,0.00,0,WeatherHawk,2013-03-01 01:19:00,
2013-02-28 18:24:00,16.5,11.2,30.19,NNW,328,1.0,-999.0,79,0.00,,,0.00,1,WeatherHawk,2013-03-01 01:24:00,
2013-02-28 18:29:00,16.7,11.1,30.19,WNW,294,6.0,-999.0,78,0.00,,,0.00,0,WeatherHawk,2013-03-01 01:29:00,
2013-02-28 18:34:00,16.5,10.9,30.19,NNW,340,2.0,-999.0,78,0.00,,,0.00,0,WeatherHawk,2013-03-01 01:34:00,
2013-02-28 18:39:00,16.5,10.9,30.19,NNW,337,3.0,-999.0,78,0.00,,,0.00,0,WeatherHawk,2013-03-01 01:39:00,
2013-02-28 18:44:00,16.5,10.9,30.19,North,7,1.0,-999.0,78,0.00,,,0.00,0,WeatherHawk,2013-03-01 01:44:00,
2013-02-28 18:49:00,16.5,11.2,30.20,West,281,2.0,-999.0,79,0.00,,,0.00,0,WeatherHawk,2013-03-01 01:49:00,
2013-02-28 18:54:00,16.5,11.2,30.19,North,7,3.0,-999.0,79,0.00,,,0.00,0,WeatherHawk,2013-03-01 01:54:00,
2013-02-28 18:59:00,16.5,11.2,30.20,NNW,328,1.0,-999.0,79,0.00,,,0.00,0,WeatherHawk,2013-03-01 01:59:00,
2013-02-28 19:09:00,16.5,10.9,30.20,SW,230,1.0,-999.0,78,0.00,,,0.00,0,WeatherHawk,2013-03-01 02:09:00,
2013-02-28 19:14:00,16.7,11.1,30.20,ESE,121,1.0,-999.0,78,0.00,,,0.00,0,WeatherHawk,2013-03-01 02:14:00,
2013-02-28 19:24:00,16.2,10.8,30.20,SE,124,1.0,-999.0,79,0.00,,,0.00,0,WeatherHawk,2013-03-01 02:24:00,
2013-02-28 19:29:00,16.2,10.8,30.20,ESE,116,1.0,-999.0,79,0.00,,,0.00,0,WeatherHawk,2013-03-01 02:29:00,
2013-02-28 19:34:00,16.3,11.0,30.20,East,83,1.0,-999.0,79,0.00,,,0.00,1,WeatherHawk,2013-03-01 02:34:00,
2013-02-28 19:39:00,16.5,10.9,30.20,SE,144,1.0,-999.0,78,0.00,,,0.00,0,WeatherHawk,2013-03-01 02:39:00,
2013-02-28 19:44:00,16.3,10.7,30.20,North,352,0.0,-999.0,78,0.00,,,0.00,0,WeatherHawk,2013-03-01 02:44:00,
2013-02-28 19:49:00,16.7,10.8,30.20,North,354,1.0,-999.0,77,0.00,,,0.00,0,WeatherHawk,2013-03-01 02:49:00,
2013-02-28 19:54:00,16.7,11.3,30.20,ENE,75,1.0,-999.0,79,0.00,,,0.00,0,WeatherHawk,2013-03-01 02:54:00,
2013-02-28 19:59:00,16.7,11.3,30.20,ESE,115,1.0,-999.0,79,0.00,,,0.00,0,WeatherHawk,2013-03-01 02:59:00,
2013-02-28 20:04:00,16.7,11.3,30.20,ENE,68,1.0,-999.0,79,0.00,,,0.00,0,WeatherHawk,2013-03-01 03:04:00,
2013-02-28 20:14:00,16.3,10.7,30.20,ENE,74,2.0,-999.0,78,0.00,,,0.00,0,WeatherHawk,2013-03-01 03:14:00,
2013-02-28 20:19:00,16.5,11.2,30.20,ESE,115,1.0,-999.0,79,0.00,,,0.00,0,WeatherHawk,2013-03-01 03:19:00,
2013-02-28 20:24:00,16.5,10.9,30.20,NE,37,1.0,-999.0,78,0.00,,,0.00,2,WeatherHawk,2013-03-01 03:24:00,
2013-02-28 20:29:00,16.3,11.0,30.20,ESE,108,2.0,-999.0,79,0.00,,,0.00,0,WeatherHawk,2013-03-01 03:29:00,
2013-02-28 20:34:00,16.5,11.2,30.20,SW,232,1.0,-999.0,79,0.00,,,0.00,0,WeatherHawk,2013-03-01 03:34:00,
2013-02-28 20:39:00,16.5,10.6,30.20,North,9,3.0,-999.0,77,0.00,,,0.00,2,WeatherHawk,2013-03-01 03:39:00,
2013-02-28 20:49:00,16.9,11.2,30.20,NNW,346,0.0,-999.0,78,0.00,,,0.00,0,WeatherHawk,2013-03-01 03:49:00,
2013-02-28 20:54:00,16.7,10.8,30.20,ESE,103,2.0,-999.0,77,0.00,,,0.00,1,WeatherHawk,2013-03-01 03:54:00,
2013-02-28 20:59:00,16.7,11.1,30.20,NNW,341,1.0,-999.0,78,0.00,,,0.00,0,WeatherHawk,2013-03-01 03:59:00,
2013-02-28 21:04:00,16.7,11.1,30.20,East,100,2.0,-999.0,78,0.00,,,0.00,0,WeatherHawk,2013-03-01 04:04:00,
2013-02-28 21:09:00,16.7,11.1,30.20,SE,139,1.0,-999.0,78,0.00,,,0.00,0,WeatherHawk,2013-03-01 04:09:00,
2013-02-28 21:14:00,16.7,11.1,30.20,SSE,150,1.0,-999.0,78,0.00,,,0.00,0,WeatherHawk,2013-03-01 04:14:00,
2013-02-28 21:19:00,16.7,11.1,30.20,ESE,118,1.0,-999.0,78,0.00,,,0.00,0,WeatherHawk,2013-03-01 04:19:00,
2013-02-28 21:29:00,16.7,11.1,30.20,ENE,77,2.0,-999.0,78,0.00,,,0.00,0,WeatherHawk,2013-03-01 04:29:00,
2013-02-28 21:39:00,16.3,11.0,30.20,North,11,0.0,-999.0,79,0.00,,,0.00,0,WeatherHawk,2013-03-01 04:39:00,
2013-02-28 21:49:00,16.5,11.2,30.20,NNE,33,1.0,-999.0,79,0.00,,,0.00,0,WeatherHawk,2013-03-01 04:49:00,
2013-02-28 21:54:00,16.3,11.0,30.20,ENE,71,1.0,-999.0,79,0.00,,,0.00,0,WeatherHawk,2013-03-01 04:54:00,
2013-02-28 22:04:00,16.7,11.3,30.20,NE,38,2.0,-999.0,79,0.00,,,0.00,0,WeatherHawk,2013-03-01 05:04:00,
2013-02-28 22:09:00,16.7,11.1,30.21,NNE,12,2.0,-999.0,78,0.00,,,0.00,0,WeatherHawk,2013-03-01 05:09:00,
2013-02-28 22:14:00,16.9,11.2,30.20,NE,49,1.0,-999.0,78,0.00,,,0.00,0,WeatherHawk,2013-03-01 05:14:00,
2013-02-28 22:19:00,16.7,11.3,30.20,NNW,343,1.0,-999.0,79,0.00,,,0.00,0,WeatherHawk,2013-03-01 05:19:00,
2013-02-28 22:24:00,16.9,11.2,30.20,ENE,63,2.0,-999.0,78,0.00,,,0.00,0,WeatherHawk,2013-03-01 05:24:00,
2013-02-28 22:29:00,17.1,11.4,30.20,NNE,25,1.0,-999.0,78,0.00,,,0.00,0,WeatherHawk,2013-03-01 05:29:00,
2013-02-28 22:34:00,17.1,11.1,30.20,North,6,2.0,-999.0,77,0.00,,,0.00,0,WeatherHawk,2013-03-01 05:34:00,
2013-02-28 22:39:00,17.2,11.3,30.20,North,6,3.0,-999.0,77,0.00,,,0.00,0,WeatherHawk,2013-03-01 05:39:00,
2013-02-28 22:44:00,17.2,11.3,30.20,NW,323,3.0,-999.0,77,0.00,,,0.00,0,WeatherHawk,2013-03-01 05:44:00,
2013-02-28 22:49:00,17.2,11.3,30.20,North,3,6.0,-999.0,77,0.00,,,0.00,0,WeatherHawk,2013-03-01 05:49:00,
2013-02-28 22:54:00,17.2,11.3,30.20,NW,315,5.0,-999.0,77,0.00,,,0.00,0,WeatherHawk,2013-03-01 05:54:00,
2013-02-28 22:59:00,17.2,11.6,30.20,North,10,1.0,-999.0,78,0.00,,,0.00,0,WeatherHawk,2013-03-01 05:59:00,
2013-02-28 23:04:00,17.2,11.3,30.20,NW,316,7.0,-999.0,77,0.00,,,0.00,0,WeatherHawk,2013-03-01 06:04:00,
2013-02-28 23:09:00,17.2,11.3,30.20,NNW,340,3.0,-999.0,77,0.00,,,0.00,0,WeatherHawk,2013-03-01 06:09:00,
2013-02-28 23:14:00,17.2,11.3,30.20,NNW,329,7.0,-999.0,77,0.00,,,0.00,0,WeatherHawk,2013-03-01 06:14:00,
2013-02-28 23:19:00,17.2,11.3,30.20,NNW,341,3.0,-999.0,77,0.00,,,0.00,0,WeatherHawk,2013-03-01 06:19:00,
2013-02-28 23:24:00,17.2,11.3,30.20,NW,318,2.0,-999.0,77,0.00,,,0.00,0,WeatherHawk,2013-03-01 06:24:00,
2013-02-28 23:29:00,17.1,11.1,30.19,NNW,331,2.0,-999.0,77,0.00,,,0.00,0,WeatherHawk,2013-03-01 06:29:00,
2013-02-28 23:34:00,17.1,11.1,30.20,North,355,2.0,-999.0,77,0.00,,,0.00,0,WeatherHawk,2013-03-01 06:34:00,
2013-02-28 23:44:00,17.1,11.1,30.20,NW,312,1.0,-999.0,77,0.00,,,0.00,0,WeatherHawk,2013-03-01 06:44:00,
2013-02-28 23:49:00,17.1,11.1,30.20,North,1,1.0,-999.0,77,0.00,,,0.00,0,WeatherHawk,2013-03-01 06:49:00,
2013-02-28 23:54:00,17.2,11.0,30.20,NNW,347,2.0,-999.0,76,0.00,,,0.00,0,WeatherHawk,2013-03-01 06:54:00,
2013-02-28 23:59:00,17.2,11.0,30.20,NNW,334,2.0,-999.0,76,0.00,,,0.00,0,WeatherHawk,2013-03-01 06:59:00,